Location: Caltech
(34.1382°N, 118.1253°W)
Time: 16:30:08
(UTC-07:00)

Tiros 1 despin weight - All Passes

Search period start: 25 October 2014 00:00
Search period end: 03 November 2014 23:00
Orbit: 601 x 652 km, 48.2° (Epoch: 24 October)

Date Brightness Start Highest point End Pass type
(mag) Time Alt. Az. Time Alt. Az. Time Alt. Az.
25 Oct - 06:29:53 10° S 06:33:47 26° SE 06:37:39 10° ENE visible
25 Oct - 08:10:46 10° WSW 08:15:20 51° NNW 08:19:51 10° NE daylight
25 Oct - 09:54:47 10° WNW 09:57:53 17° NNW 10:00:57 10° NNE daylight
25 Oct - 11:38:37 10° NNW 11:41:05 14° N 11:43:32 10° NE daylight
25 Oct - 13:19:59 10° NW 13:23:59 30° NNE 13:27:55 10° E daylight
25 Oct - 15:01:30 10° WNW 15:05:52 52° SW 15:10:11 10° SSE daylight
26 Oct - 06:48:10 10° SW 06:52:47 58° SE 06:57:21 10° ENE daylight
26 Oct - 08:30:38 10° W 08:34:44 30° NNW 08:38:48 10° NE daylight
26 Oct - 10:15:09 10° NW 10:17:39 14° N 10:20:08 10° NNE daylight
26 Oct - 11:57:47 10° NNW 12:00:51 17° NNE 12:03:53 10° ENE daylight
26 Oct - 13:38:56 10° NW 13:43:22 53° NNE 13:47:44 10° ESE daylight
26 Oct - 15:21:17 10° W 15:24:50 23° SW 15:28:20 10° S daylight
27 Oct - 05:27:16 10° S 05:30:32 19° SE 05:33:48 10° E visible
27 Oct - 07:07:14 10° WSW 07:11:55 69° NW 07:16:34 10° NE daylight
27 Oct - 08:50:52 10° WNW 08:54:18 20° NNW 08:57:43 10° NNE daylight
27 Oct - 10:35:05 10° NNW 10:37:27 14° N 10:39:49 10° NE daylight
27 Oct - 12:16:43 10° NNW 12:20:29 25° NNE 12:24:11 10° ENE daylight
27 Oct - 13:58:03 10° NW 14:02:34 74° SW 14:07:00 10° SE daylight
28 Oct - 05:45:02 10° SSW 05:49:27 41° SE 05:53:50 10° ENE visible
28 Oct - 07:26:53 10° W 07:31:14 37° NNW 07:35:33 10° NE daylight
28 Oct - 09:11:15 10° NW 09:14:00 15° N 09:16:45 10° NNE daylight
28 Oct - 10:54:25 10° NNW 10:57:14 16° N 11:00:01 10° NE daylight
28 Oct - 12:35:37 10° NW 12:39:56 41° NNE 12:44:10 10° ESE daylight
28 Oct - 14:17:32 10° WNW 14:21:34 33° SW 14:25:33 10° SSE daylight
29 Oct - 04:25:05 10° SSE 04:27:17 13° SE 04:29:28 10° E visible
29 Oct - 06:03:47 10° SW 06:08:30 88° SE 06:13:12 10° NE visible
29 Oct - 07:46:57 10° WNW 07:50:42 23° NNW 07:54:26 10° NNE daylight
29 Oct - 09:31:23 10° NNW 09:33:47 14° N 09:36:10 10° NNE daylight
29 Oct - 11:13:24 10° NNW 11:16:54 21° NNE 11:20:22 10° ENE daylight
29 Oct - 12:54:38 10° NW 12:59:11 80° NE 13:03:40 10° SE daylight
29 Oct - 14:37:59 10° W 14:40:25 14° SW 14:42:49 10° SSW daylight
30 Oct - 04:42:02 10° SSW 04:46:06 29° SE 04:50:11 10° ENE visible
30 Oct - 06:23:10 10° WSW 06:27:43 47° NNW 06:32:14 10° NE visible
30 Oct - 08:07:16 10° NW 08:10:20 17° NNW 08:13:23 10° NNE daylight
30 Oct - 09:50:56 10° NNW 09:53:33 15° N 09:56:09 10° NE daylight
30 Oct - 11:32:16 10° NW 11:36:25 32° NNE 11:40:29 10° E daylight
30 Oct - 13:13:54 10° WNW 13:18:15 46° SW 13:22:31 10° SSE daylight
31 Oct - 05:00:24 10° SW 05:05:04 65° SE 05:09:43 10° ENE visible
31 Oct - 06:43:02 10° W 06:47:06 28° NNW 06:51:08 10° NE visible
31 Oct - 08:27:32 10° NW 08:30:04 14° N 08:32:35 10° NNE daylight
31 Oct - 10:10:01 10° NNW 10:13:16 18° NNE 10:16:28 10° ENE daylight
31 Oct - 11:51:12 10° NW 11:55:44 59° NE 12:00:10 10° ESE daylight
31 Oct - 13:33:45 10° W 13:37:08 21° SW 13:40:28 10° S daylight
01 Nov - 03:39:13 10° S 03:42:45 21° SE 03:46:18 10° E visible
01 Nov - 05:19:31 10° WSW 05:24:12 63° NW 05:28:51 10° NE visible
01 Nov - 07:03:15 10° WNW 07:06:39 19° NNW 07:10:01 10° NNE daylight
01 Nov - 08:47:20 10° NNW 08:49:50 14° N 08:52:19 10° NE daylight
01 Nov - 10:28:54 10° NW 10:32:49 27° NNE 10:36:41 10° E daylight
01 Nov - 12:10:19 10° WNW 12:14:51 66° SW 12:19:18 10° SE daylight
02 Nov - 02:57:07 10° SSW 03:01:38 46° SE 03:06:09 10° ENE visible
02 Nov - 04:39:10 10° W 04:43:29 34° NNW 04:47:46 10° NE visible
02 Nov - 06:23:34 10° NW 06:26:19 15° N 06:29:03 10° NNE daylight
02 Nov - 08:06:34 10° NNW 08:09:33 17° NNE 08:12:30 10° NE daylight
02 Nov - 09:47:46 10° NW 09:52:12 45° NNE 09:56:33 10° ESE daylight
02 Nov - 11:29:50 10° WNW 11:33:47 29° SW 11:37:41 10° SSE daylight
03 Nov - 01:36:45 10° SSE 01:39:24 15° SE 01:42:03 10° E night (unlit)
03 Nov - 03:15:56 10° SW 03:20:40 84° NW 03:25:23 10° NE visible
03 Nov - 04:59:14 10° WNW 05:02:56 22° NNW 05:06:37 10° NNE visible
03 Nov - 06:43:34 10° NNW 06:46:03 14° N 06:48:31 10° NNE daylight
03 Nov - 08:25:29 10° NNW 08:29:09 23° NNE 08:32:46 10° ENE daylight
03 Nov - 10:06:46 10° NW 10:11:23 89° NE 10:15:54 10° SE daylight
03 Nov - 11:50:31 10° W 11:52:33 13° SW 11:54:34 10° SSW daylight
